Location: Newark
(2.6153°S, 29.9989°E)
Time: 18:23:00
(UTC+00:00)

Hubble Space Telescope - Visible Passes

Search period start: 15 July 2019 00:00
Search period end: 25 July 2019 00:00
Orbit: 536 x 540 km, 28.5° (Epoch: 14 July)

Date Brightness Start Highest point End Pass type
(mag) Time Alt. Az. Time Alt. Az. Time Alt. Az.
15 Jul 3.1 02:42:53 12° S 02:43:59 13° SSE 02:46:01 10° SE visible
15 Jul 2.6 17:58:17 10° W 18:00:47 25° WSW 18:00:47 25° WSW visible
16 Jul 2.8 02:33:06 17° SSE 02:33:32 18° SSE 02:36:21 10° ESE visible
16 Jul 2.7 17:48:13 10° WSW 17:51:01 21° SW 17:51:01 21° SW visible
17 Jul 2.5 02:23:19 23° SE 02:23:19 23° SE 02:26:24 10° E visible
17 Jul 2.9 17:38:22 10° WSW 17:40:55 16° SSW 17:41:15 16° SSW visible
18 Jul 2.4 02:13:33 28° ESE 02:13:33 28° ESE 02:16:17 10° E visible
18 Jul 3.2 17:28:54 10° SW 17:30:29 12° SSW 17:31:28 11° S visible
19 Jul 2.6 02:03:47 28° E 02:03:47 28° E 02:06:01 10° ENE visible
19 Jul 2.2 03:39:41 10° W 03:43:11 26° NNW 03:46:40 10° NNE visible
20 Jul 3.1 01:54:00 23° ENE 01:54:00 23° ENE 01:55:37 10° ENE visible
20 Jul 2.6 03:29:41 10° WNW 03:32:40 19° NNW 03:35:39 10° NNE visible
21 Jul 3.6 01:44:12 16° ENE 01:44:12 16° ENE 01:45:08 10° ENE visible
21 Jul 3.0 03:19:58 10° WNW 03:22:10 14° NNW 03:24:22 10° N visible
22 Jul 4.0 01:34:23 11° NE 01:34:23 11° NE 01:34:32 10° NE visible
